[[{"header":{"parameterUnit":"m.s-1","parameterCategory":1,"la1":30.2991,"la2":30.254,"lo1":-89.0895,"lo2":-89.0444,"dy":0.0017,"dx":0.0017,"nx":28,"ny":28,"refTime":"2025-05-21T21:00:00:Z","depth":0,"parameterNumber":2,"parameterNumberName":"U-component_of_WINDS"},"data":[0,0,0,0,0,0,0,0,0,0,0,0,0,0,0,0,0,0,0,0,0,0,0,0,0,0,0,0,0,0,0,0,0,0,0,0,0,0,0,0,0,0,0,0,0,0,0,0,0,0,0,0,0,0,0,0,0,0,-1.0257,-1.0256,0,-1.0194,-1.0193,-1.0193,-1.0132,-1.0131,-1.0131,-1.013,-1.0065,-1.0064,-1.0063,0,0,0,0,0,0,0,0,0,0,0,0,0,-1.0323,-1.0322,-1.0257,-1.0256,-1.0255,-1.0194,-1.0193,-1.0192,-1.0132,-1.0131,-1.013,-1.0129,-1.0065,-1.0064,-1.0063,0,0,0,0,0,0,0,0,0,0,0,0,0,-1.0281,-1.0322,-1.0257,-1.0218,-1.0214,-1.0194,-1.0193,-1.0192,-1.0132,-1.0131,-1.013,-1.0129,-1.0065,-1.0064,-1.0062,-1.0076,0,0,-1.0058,-1.0057,0,0,0,0,0,0,0,0,-1.0283,-1.0278,-1.0224,-1.022,-1.0216,-1.017,-1.0193,-1.0153,-1.0133,-1.0163,-1.013,-1.0128,-1.01,-1.0096,-1.0087,-1.0073,-1.0071,-1.0058,-1.0057,-1.0056,-1.0056,0,0,0,0,0,0,0,-1.0286,-1.028,-1.0232,-1.0224,-1.0218,-1.0203,-1.0196,-1.0185,-1.0139,-1.016,-1.0156,-1.0149,-1.0098,-1.0088,-1.0085,-1.007,-1.0058,-1.0056,-1.0055,-1.0055,-1.0065,-1.0066,0,0,0,0,0,0,-1.0295,-1.0283,-1.0234,-1.023,-1.0247,-1.0203,-1.0194,-1.0186,-1.0139,-1.0131,-1.015,-1.0147,-1.0092,-1.0087,-1.0082,-1.0096,-1.0056,-1.0055,-1.0054,-1.0063,-1.0065,-1.0066,0,0,0,0,0,0,-1.0297,-1.0291,-1.0236,-1.0255,-1.0247,-1.0203,-1.0193,-1.0185,-1.0175,-1.0131,-1.0123,-1.0149,-1.009,-1.0084,-1.0078,-1.0093,-1.0054,-1.0053,-1.0062,-1.0064,-1.0065,-1.0124,0,0,0,0,0,0,-1.0299,-1.0292,-1.0297,-1.0256,-1.0246,-1.0234,-1.0194,-1.0185,-1.0173,-1.0168,-1.0128,-1.012,-1.0089,-1.0081,-1.0077,-1.009,-1.0051,-1.006,-1.0063,-1.0065,-1.012,-1.0127,-1.0133,0,0,0,0,0,-1.0301,-1.0316,-1.0298,-1.0292,-1.0252,-1.0235,-1.023,-1.0194,-1.0175,-1.0179,-1.0151,-1.0122,-1.0092,-1.0081,-1.0076,-1.0089,-1.0059,-1.0062,-1.0065,-1.0117,-1.0126,-1.0133,0,0,0,0,0,0,-1.036,-1.031,-1.0289,-1.0291,-1.0268,-1.0225,-1.023,-1.0204,-1.0185,-1.0181,-1.0136,-1.0128,-1.0127,-1.0107,-1.0096,-1.01,-1.0072,-1.0073,-1.0113,-1.0121,-1.0127,-1.0133,-1.005,0,0,0,0,0,-1.0373,-1.0364,-1.032,-1.0326,-1.0315,-1.0275,-1.0266,-1.024,-1.0214,-1.0204,-1.0175,-1.0151,-1.0136,-1.0127,-1.0111,-1.0117,-1.0107,-1.0123,-1.0129,-1.0135,-1.0137,-1.0139,-1.0146,-1.0075,-1.0075,-1.0075,0,0,-1.04,-1.0372,-1.0368,-1.0337,-1.0316,-1.0307,-1.0267,-1.0259,-1.0252,-1.0203,-1.0196,-1.0174,-1.0143,-1.0144,-1.0142,-1.0127,-1.0155,-1.0138,-1.0143,-1.0142,-1.0143,-1.015,-1.0156,-1.0076,-1.0076,-1.0076,0,0,-1.0445,-1.0423,-1.0425,-1.0405,-1.0374,-1.0346,-1.0347,-1.0308,-1.0292,-1.0284,-1.0247,-1.0237,-1.0212,-1.0193,-1.0179,-1.0217,-1.0189,-1.0212,-1.0247,-1.0249,-1.0255,-1.026,-1.0274,-1.0279,-1.0215,-1.0215,-1.0215,0,-1.0483,-1.0469,-1.043,-1.0425,-1.0412,-1.0367,-1.0369,-1.0351,-1.0316,-1.0308,-1.0291,-1.0259,-1.0236,-1.0231,-1.024,-1.023,-1.023,-1.0217,-1.0257,-1.0262,-1.0266,-1.0279,-1.0284,-1.0218,-1.0218,-1.0217,-1.0217,0,-1.0517,-1.0508,-1.0513,-1.0481,-1.0469,-1.0468,-1.0428,-1.042,-1.0395,-1.037,-1.0362,-1.0332,-1.031,-1.0306,-1.0281,-1.0298,-1.0289,-1.0265,-1.0236,-1.0276,-1.0288,-1.0292,-1.0222,-1.0221,-1.022,-1.022,0,0,-1.0598,-1.0545,-1.0547,-1.0533,-1.0495,-1.0486,-1.0483,-1.0461,-1.0455,-1.0432,-1.0428,-1.0408,-1.0386,-1.0371,-1.0343,-1.0345,-1.0378,-1.0321,-1.0319,-1.0334,-1.0395,-1.0415,-1.0421,-1.0359,-1.036,-1.036,-1.0398,0,-1.0638,-1.063,-1.0594,-1.0596,-1.0587,-1.0543,-1.054,-1.0516,-1.0492,-1.0481,-1.0453,-1.0441,-1.0411,-1.0402,-1.0402,-1.0374,-1.039,-1.037,-1.0355,-1.0355,-1.0366,-1.0427,-1.0447,-1.0485,-1.0402,-1.0403,-1.0403,0,-1.0683,-1.0664,-1.0666,-1.0628,-1.0623,-1.0621,-1.0598,-1.0587,-1.0559,-1.0541,-1.0525,-1.0494,-1.0487,-1.0459,-1.045,-1.0438,-1.0429,-1.0414,-1.0415,-1.0413,-1.0383,-1.0428,-1.0495,-1.0502,-1.041,-1.0409,-1.0409,0,-1.0744,-1.0718,-1.0716,-1.0704,-1.066,-1.066,-1.0641,-1.0612,-1.0601,-1.0581,-1.0573,-1.0552,-1.0541,-1.0525,-1.049,-1.0472,-1.0485,-1.0453,-1.047,-1.0471,-1.0476,-1.0477,-1.0544,-1.0468,-1.0468,-1.0468,-1.0468,0,-1.0793,-1.0796,-1.0743,-1.0742,-1.0743,-1.0702,-1.0705,-1.0682,-1.0656,-1.065,-1.061,-1.0604,-1.0557,-1.0546,-1.0518,-1.0515,-1.0509,-1.0495,-1.0488,-1.05,-1.0502,-1.0494,-1.0492,-1.0469,-1.0469,-1.0469,-1.0469,0,-1.0862,-1.0826,-1.0821,-1.078,-1.0769,-1.0773,-1.0737,-1.0734,-1.0707,-1.0699,-1.0695,-1.0653,-1.0638,-1.06,-1.0575,-1.0556,-1.0561,-1.0547,-1.0571,-1.0567,-1.0586,-1.0586,-1.0653,-1.066,-1.0579,-1.058,-1.058,0,-1.0897,-1.0898,-1.0857,-1.085,-1.0833,-1.0822,-1.0811,-1.0769,-1.0759,-1.0727,-1.0728,-1.071,-1.0694,-1.0672,-1.0639,-1.062,-1.0605,-1.063,-1.0602,-1.0614,-1.0607,-1.0608,-1.0609,-1.0637,-1.0638,-1.0639,-1.064,0,-1.0962,-1.0944,-1.093,-1.0909,-1.0897,-1.0879,-1.0858,-1.0855,-1.0808,-1.0799,-1.0784,-1.0771,-1.0745,-1.0728,-1.0704,-1.0684,-1.0655,-1.0649,-1.0652,-1.0665,-1.0679,-1.0673,-1.059,-1.0648,-1.0647,-1.0646,-1.0646,-1.0645,-1.1015,-1.1014,-1.0986,-1.0971,-1.0951,-1.0933,-1.0929,-1.0901,-1.0888,-1.0864,-1.084,-1.0827,-1.0799,-1.0763,-1.0746,-1.0735,-1.0719,-1.0724,-1.0725,-1.0727,-1.0733,-1.068,-1.073,-1.073,-1.0729,-1.0729,-1.0729,0,-1.1079,-1.1059,-1.1045,-1.1018,-1.1007,-1.098,-1.0956,-1.0948,-1.0937,-1.0913,-1.0898,-1.088,-1.0863,-1.0829,-1.0809,-1.0807,-1.0793,-1.0803,-1.0804,-1.08,-1.0747,-1.0747,-1.0815,-1.0815,-1.0815,-1.0815,-1.0815,-1.0815,-1.1112,-1.1109,-1.1088,-1.1076,-1.1054,-1.1042,-1.1031,-1.1014,-1.0995,-1.0977,-1.0963,-1.094,-1.0912,-1.089,-1.0873,-1.0863,-1.0858,-1.0873,-1.086,-1.0811,-1.0803,-1.0796,-1.0795,-1.0872,-1.0872,-1.0913,-1.0913,-1.0914]},{"header":{"parameterUnit":"m.s-1","parameterCategory":1,"la1":30.2991,"la2":30.254,"lo1":-89.0895,"lo2":-89.0444,"dy":0.0017,"dx":0.0017,"nx":28,"ny":28,"refTime":"2025-05-21T21:00:00:Z","depth":0,"parameterNumber":3,"parameterNumberName":"V-component_of_WINDS"},"data":[0,0,0,0,0,0,0,0,0,0,0,0,0,0,0,0,0,0,0,0,0,0,0,0,0,0,0,0,0,0,0,0,0,0,0,0,0,0,0,0,0,0,0,0,0,0,0,0,0,0,0,0,0,0,0,0,0,0,-3.0496,-3.0496,0,-3.0507,-3.0507,-3.0507,-3.0477,-3.0476,-3.0475,-3.0474,-3.0484,-3.0485,-3.0486,0,0,0,0,0,0,0,0,0,0,0,0,0,-3.0447,-3.0448,-3.0496,-3.0496,-3.0496,-3.0507,-3.0507,-3.0507,-3.0477,-3.0476,-3.0475,-3.0474,-3.0484,-3.0485,-3.0486,0,0,0,0,0,0,0,0,0,0,0,0,0,-3.0464,-3.0448,-3.0496,-3.0482,-3.0481,-3.0507,-3.0507,-3.0507,-3.0477,-3.0476,-3.0474,-3.0473,-3.0483,-3.0485,-3.0486,-3.0525,0,0,-3.0492,-3.0492,0,0,0,0,0,0,0,0,-3.0463,-3.0466,-3.0484,-3.0483,-3.0482,-3.0489,-3.0493,-3.0513,-3.0478,-3.0479,-3.0474,-3.0472,-3.0487,-3.0488,-3.0493,-3.0526,-3.0526,-3.0492,-3.0493,-3.0494,-3.0494,0,0,0,0,0,0,0,-3.0462,-3.0465,-3.05,-3.0485,-3.0483,-3.0475,-3.0476,-3.0497,-3.049,-3.0479,-3.0476,-3.0478,-3.0486,-3.0492,-3.0493,-3.0526,-3.0492,-3.0493,-3.0494,-3.0495,-3.0592,-3.0594,0,0,0,0,0,0,-3.0463,-3.0464,-3.05,-3.0501,-3.0469,-3.0477,-3.0478,-3.0488,-3.049,-3.0489,-3.0479,-3.0477,-3.0489,-3.0491,-3.0493,-3.054,-3.0494,-3.0495,-3.0496,-3.0591,-3.0593,-3.0594,0,0,0,0,0,0,-3.0462,-3.0466,-3.0499,-3.0482,-3.0486,-3.048,-3.0491,-3.0489,-3.0495,-3.0491,-3.0489,-3.0487,-3.0488,-3.0491,-3.0518,-3.054,-3.0496,-3.0497,-3.0589,-3.0591,-3.0593,-3.0634,0,0,0,0,0,0,-3.046,-3.0466,-3.0481,-3.0483,-3.0487,-3.0525,-3.0492,-3.0491,-3.0498,-3.0495,-3.0497,-3.0496,-3.0487,-3.0516,-3.052,-3.0542,-3.0499,-3.0587,-3.059,-3.0593,-3.0631,-3.0638,-3.0643,0,0,0,0,0,-3.0459,-3.0492,-3.0482,-3.0487,-3.0506,-3.0526,-3.0528,-3.0518,-3.05,-3.0515,-3.0513,-3.0496,-3.0537,-3.0519,-3.0523,-3.0546,-3.0585,-3.0589,-3.0592,-3.0628,-3.0636,-3.0643,0,0,0,0,0,0,-3.0492,-3.0492,-3.0481,-3.0515,-3.0521,-3.0521,-3.054,-3.0527,-3.0537,-3.0534,-3.0519,-3.052,-3.055,-3.055,-3.053,-3.0584,-3.0558,-3.0563,-3.0584,-3.0591,-3.0597,-3.0598,-3.05,0,0,0,0,0,-3.0504,-3.0521,-3.0519,-3.0549,-3.0553,-3.0546,-3.0554,-3.0546,-3.0551,-3.0553,-3.0552,-3.0557,-3.0571,-3.0581,-3.0593,-3.063,-3.0631,-3.0648,-3.0654,-3.0659,-3.0664,-3.0685,-3.0693,-3.0606,-3.0606,-3.0606,0,0,-3.0528,-3.0529,-3.0541,-3.0556,-3.056,-3.0578,-3.0548,-3.0568,-3.0581,-3.0556,-3.0582,-3.0581,-3.0586,-3.0619,-3.0633,-3.062,-3.0688,-3.0664,-3.0668,-3.067,-3.0689,-3.0697,-3.0705,-3.0608,-3.0608,-3.0607,0,0,-3.0581,-3.0583,-3.061,-3.0614,-3.062,-3.0615,-3.0621,-3.0623,-3.0622,-3.0648,-3.0629,-3.0644,-3.0668,-3.0673,-3.0678,-3.0733,-3.0719,-3.0737,-3.0771,-3.0791,-3.0798,-3.0804,-3.0826,-3.0833,-3.0741,-3.0741,-3.0741,0,-3.061,-3.0637,-3.0625,-3.0647,-3.0654,-3.0632,-3.0659,-3.0663,-3.0672,-3.0678,-3.0663,-3.0693,-3.0695,-3.0729,-3.0742,-3.0746,-3.0754,-3.0738,-3.0798,-3.0804,-3.081,-3.083,-3.0838,-3.0744,-3.0743,-3.0743,-3.0743,0,-3.0673,-3.0692,-3.0713,-3.0724,-3.0733,-3.0757,-3.0748,-3.0759,-3.0749,-3.0746,-3.0773,-3.0773,-3.0786,-3.0793,-3.0783,-3.0826,-3.0818,-3.08,-3.0774,-3.082,-3.084,-3.0847,-3.0747,-3.0746,-3.0746,-3.0745,0,0,-3.075,-3.0753,-3.0762,-3.0767,-3.0771,-3.0785,-3.0808,-3.0821,-3.0832,-3.0838,-3.0858,-3.0878,-3.0863,-3.0869,-3.0859,-3.0876,-3.0922,-3.0857,-3.0857,-3.0871,-3.0971,-3.0986,-3.0995,-3.0912,-3.0913,-3.0914,-3.0971,0,-3.0804,-3.0845,-3.0835,-3.0875,-3.0893,-3.0871,-3.0891,-3.0896,-3.0893,-3.0907,-3.0903,-3.0919,-3.0896,-3.09,-3.0916,-3.0913,-3.0942,-3.0908,-3.0931,-3.0932,-3.0933,-3.1005,-3.1021,-3.1075,-3.0978,-3.098,-3.0981,0,-3.0874,-3.0885,-3.0928,-3.093,-3.0937,-3.0955,-3.0967,-3.098,-3.0985,-3.0982,-3.0989,-3.0975,-3.0998,-3.097,-3.1001,-3.0978,-3.0986,-3.0986,-3.0987,-3.0991,-3.0961,-3.1013,-3.1092,-3.1101,-3.0992,-3.0991,-3.099,0,-3.0929,-3.0953,-3.0983,-3.0987,-3.099,-3.1004,-3.1005,-3.1008,-3.1017,-3.1027,-3.1032,-3.1044,-3.1051,-3.106,-3.105,-3.103,-3.1083,-3.1054,-3.1082,-3.1083,-3.1097,-3.1097,-3.1181,-3.1097,-3.1097,-3.1097,-3.1097,0,-3.0993,-3.102,-3.1008,-3.1026,-3.1056,-3.1042,-3.1072,-3.1071,-3.1074,-3.1092,-3.1072,-3.1089,-3.1074,-3.1089,-3.1081,-3.1109,-3.1111,-3.111,-3.1108,-3.1113,-3.1114,-3.112,-3.1117,-3.1099,-3.1099,-3.1098,-3.1098,0,-3.106,-3.1053,-3.1084,-3.1083,-3.1084,-3.1107,-3.1106,-3.1123,-3.1118,-3.114,-3.1145,-3.1137,-3.1154,-3.1144,-3.1161,-3.1156,-3.1193,-3.1184,-3.1192,-3.1191,-3.1221,-3.1219,-3.1314,-3.1327,-3.1233,-3.1234,-3.1234,0,-3.1103,-3.1124,-3.1126,-3.1137,-3.114,-3.1157,-3.1167,-3.1153,-3.1164,-3.1171,-3.1187,-3.1202,-3.1214,-3.1242,-3.1238,-3.125,-3.1244,-3.1276,-3.1246,-3.1251,-3.1247,-3.1248,-3.125,-3.1283,-3.1284,-3.1285,-3.1286,0,-3.1181,-3.1176,-3.119,-3.1204,-3.1215,-3.1225,-3.1232,-3.1242,-3.1229,-3.1241,-3.1259,-3.1268,-3.1285,-3.1301,-3.1312,-3.1313,-3.1298,-3.1295,-3.1303,-3.131,-3.1315,-3.1315,-3.1212,-3.1294,-3.1293,-3.1292,-3.1292,-3.1292,-3.1239,-3.1257,-3.1262,-3.1279,-3.1283,-3.1291,-3.1307,-3.1304,-3.1319,-3.1333,-3.1323,-3.1345,-3.1348,-3.1362,-3.1365,-3.1381,-3.1368,-3.1378,-3.1382,-3.1385,-3.1391,-3.131,-3.1382,-3.1382,-3.1382,-3.1382,-3.1381,0,-3.1318,-3.132,-3.1335,-3.1347,-3.136,-3.1344,-3.1352,-3.1364,-3.1383,-3.1388,-3.14,-3.1421,-3.1436,-3.1432,-3.1446,-3.146,-3.1453,-3.1464,-3.1464,-3.1465,-3.14,-3.1393,-3.1469,-3.1469,-3.1469,-3.1469,-3.1469,-3.1469,-3.1361,-3.1391,-3.1387,-3.1419,-3.142,-3.1442,-3.1448,-3.1455,-3.1459,-3.1483,-3.1496,-3.1493,-3.1495,-3.1509,-3.1522,-3.152,-3.1527,-3.1542,-3.1538,-3.1478,-3.1469,-3.1461,-3.1455,-3.1543,-3.1543,-3.1602,-3.1602,-3.1603]}]]